Location: Waldport
(44.4270°N, 124.0680°W)
Time: 14:44:25
(UTC-07:00)

Meteor 1-26 Rocket - Visible Passes

Search period start: 31 August 2016 00:00
Search period end: 10 September 2016 00:00
Orbit: 833 x 902 km, 81.3° (Epoch: 31 August)

Date Brightness Start Highest point End Pass type
(mag) Time Alt. Az. Time Alt. Az. Time Alt. Az.
31 Aug 5.0 04:37:28 10° S 04:43:09 54° E 04:48:53 10° NNE visible
01 Sep 4.9 04:31:01 12° S 04:36:12 55° E 04:41:58 10° NNE visible
02 Sep 4.9 04:24:52 17° SSE 04:29:16 56° E 04:35:03 10° NNE visible
02 Sep 5.5 06:08:19 10° WSW 06:12:57 24° WNW 06:17:38 10° NNW visible
03 Sep 4.9 04:18:41 22° SSE 04:22:21 57° E 04:28:07 10° NNE visible
03 Sep 5.5 06:01:26 10° WSW 06:06:02 23° WNW 06:10:41 10° NNW visible
04 Sep 4.8 04:12:26 28° SSE 04:15:25 58° E 04:21:13 10° NNE visible
04 Sep 5.6 05:54:51 11° WSW 05:59:07 23° WNW 06:03:44 10° NNW visible
05 Sep 4.8 04:06:09 35° SSE 04:08:30 58° E 04:14:17 10° NNE visible
05 Sep 5.6 05:48:33 13° WSW 05:52:13 23° WNW 05:56:48 10° NNW visible
06 Sep 4.7 03:59:49 42° SSE 04:01:35 59° E 04:07:22 10° NNE visible
06 Sep 5.6 05:42:14 15° WSW 05:45:18 22° WNW 05:49:51 10° NNW visible
07 Sep 4.7 03:53:27 50° SE 03:54:38 60° E 04:00:27 10° NNE visible
07 Sep 5.6 05:35:51 17° W 05:38:23 22° WNW 05:42:54 10° NNW visible
08 Sep 4.6 03:47:03 57° SE 03:47:42 61° E 03:53:32 10° NNE visible
08 Sep 5.6 05:29:27 18° W 05:31:28 22° WNW 05:35:57 10° NNW visible
09 Sep 4.6 03:40:37 62° ESE 03:40:48 62° E 03:46:37 10° NNE visible
09 Sep 5.6 05:23:01 19° W 05:24:33 21° WNW 05:28:59 10° NNW visible
